�������l�o���
Date,Time,MP-1(��Sv/h),MP-2(��Sv/h),MP-3(��Sv/h),MP-4(��Sv/h),MP-5(��Sv/h),MP-6(��Sv/h),MP-7(��Sv/h),MP-8(��Sv/h),����,����(m/s),���J
2023/04/19,00:00,0.563,0.820,0.496,1.020,0.722,0.323,0.577,0.545,��,0.9,�L
2023/04/19,00:10,0.561,0.820,0.495,1.022,0.721,0.324,0.576,0.546,-,CALM,�L
2023/04/19,00:20,0.563,0.819,0.496,1.022,0.721,0.325,0.575,0.547,���쐼,0.8,�L
2023/04/19,00:30,0.563,0.819,0.496,1.023,0.722,0.325,0.575,0.546,���k��,0.6,��
2023/04/19,00:40,0.563,0.821,0.496,1.021,0.723,0.324,0.575,0.546,��,0.8,��
2023/04/19,00:50,0.561,0.820,0.496,1.021,0.724,0.325,0.576,0.546,��쓌,1.2,�L
2023/04/19,01:00,0.563,0.818,0.497,1.024,0.723,0.325,0.575,0.545,��,1.2,��
2023/04/19,01:10,0.563,0.818,0.497,1.020,0.724,0.324,0.576,0.547,��,1.4,��
2023/04/19,01:20,0.563,0.820,0.495,1.022,0.721,0.324,0.574,0.545,��,2.6,��
2023/04/19,01:30,0.564,0.819,0.496,1.019,0.724,0.323,0.574,0.545,��,2.8,��
2023/04/19,01:40,0.562,0.819,0.497,1.024,0.724,0.324,0.575,0.545,��쐼,2.0,��
2023/04/19,01:50,0.563,0.818,0.496,1.022,0.723,0.324,0.577,0.546,��쐼,0.8,��
2023/04/19,02:00,0.563,0.819,0.496,1.023,0.721,0.324,0.574,0.544,�쐼,0.6,��
2023/04/19,02:10,0.564,0.819,0.496,1.021,0.721,0.325,0.575,0.547,���쐼,0.9,��
2023/04/19,02:20,0.564,0.817,0.497,1.020,0.722,0.324,0.575,0.546,���쐼,2.0,��
2023/04/19,02:30,0.560,0.821,0.495,1.021,0.722,0.324,0.577,0.545,���k��,0.6,��
2023/04/19,02:40,0.565,0.819,0.495,1.021,0.723,0.324,0.576,0.546,�k��,1.5,��
2023/04/19,02:50,0.565,0.821,0.496,1.023,0.724,0.325,0.574,0.548,�k�k��,1.5,��
2023/04/19,03:00,0.564,0.819,0.494,1.022,0.722,0.325,0.577,0.547,�k,1.2,��
2023/04/19,03:10,0.563,0.819,0.497,1.020,0.722,0.323,0.574,0.546,�k,1.4,��
2023/04/19,03:20,0.562,0.819,0.496,1.022,0.723,0.326,0.575,0.546,�k�k��,0.8,��
2023/04/19,03:30,0.563,0.821,0.496,1.020,0.723,0.324,0.574,0.546,�k,1.1,��
2023/04/19,03:40,0.564,0.819,0.495,1.022,0.722,0.325,0.575,0.544,�k,0.9,��
2023/04/19,03:50,0.564,0.818,0.493,1.022,0.724,0.323,0.576,0.546,-,CALM,��
2023/04/19,04:00,0.564,0.820,0.495,1.024,0.723,0.325,0.575,0.547,�k��,0.9,��
2023/04/19,04:10,0.564,0.818,0.495,1.021,0.720,0.324,0.574,0.546,���k��,1.1,��
2023/04/19,04:20,0.563,0.819,0.495,1.022,0.721,0.324,0.575,0.544,��,2.2,��
2023/04/19,04:30,0.565,0.819,0.495,1.022,0.723,0.325,0.576,0.545,���쐼,2.6,��
2023/04/19,04:40,0.565,0.820,0.496,1.024,0.723,0.325,0.574,0.545,��,3.1,��
2023/04/19,04:50,0.562,0.818,0.498,1.022,0.722,0.324,0.575,0.546,���쐼,2.5,��
2023/04/19,05:00,0.563,0.817,0.494,1.022,0.721,0.324,0.575,0.546,��,3.3,��
2023/04/19,05:10,0.563,0.818,0.496,1.022,0.723,0.324,0.575,0.546,���쐼,4.6,��
2023/04/19,05:20,0.562,0.821,0.498,1.021,0.722,0.325,0.575,0.545,���쐼,4.7,��
2023/04/19,05:30,0.564,0.818,0.495,1.021,0.722,0.324,0.574,0.547,��,4.0,��
2023/04/19,05:40,0.564,0.819,0.495,1.024,0.723,0.325,0.577,0.546,���k��,4.6,��
2023/04/19,05:50,0.564,0.818,0.496,1.022,0.723,0.323,0.576,0.545,���k��,5.0,��
2023/04/19,06:00,0.564,0.819,0.495,1.023,0.722,0.325,0.575,0.546,�k��,4.1,��
2023/04/19,06:10,0.563,0.819,0.496,1.022,0.722,0.325,0.574,0.546,�k��,4.6,��
2023/04/19,06:20,0.563,0.821,0.495,1.023,0.725,0.324,0.575,0.545,�k�k��,4.0,��
2023/04/19,06:30,0.564,0.819,0.495,1.023,0.722,0.324,0.576,0.546,�k�k��,3.8,��
2023/04/19,06:40,0.565,0.820,0.495,1.025,0.722,0.323,0.574,0.546,�k,3.4,��
2023/04/19,06:50,0.563,0.820,0.496,1.022,0.722,0.325,0.575,0.547,�k,2.9,��
2023/04/19,07:00,0.565,0.820,0.495,1.022,0.723,0.324,0.575,0.546,�k,2.6,��
2023/04/19,07:10,0.564,0.820,0.497,1.024,0.723,0.324,0.576,0.548,�k,1.9,��
2023/04/19,07:20,0.564,0.823,0.496,1.021,0.723,0.324,0.574,0.547,�k�k��,1.5,��
2023/04/19,07:30,0.563,0.822,0.495,1.024,0.724,0.323,0.575,0.546,�k�k��,1.7,��
2023/04/19,07:40,0.564,0.820,0.494,1.022,0.724,0.323,0.574,0.544,�k��,1.5,��
2023/04/19,07:50,0.563,0.819,0.498,1.024,0.722,0.325,0.576,0.544,�k��,1.9,��
2023/04/19,08:00,0.564,0.818,0.496,1.023,0.721,0.323,0.574,0.544,���쓌,0.9,��
2023/04/19,08:10,0.565,0.814,0.497,1.022,0.720,0.323,0.575,0.543,�k��,0.6,��
2023/04/19,08:20,0.565,0.817,0.497,1.022,0.722,0.322,0.576,0.544,-,CALM,��
2023/04/19,08:30,0.563,0.817,0.495,1.023,0.720,0.323,0.575,0.546,��,1.1,��
2023/04/19,08:40,0.564,0.817,0.494,1.022,0.720,0.322,0.574,0.543,���쓌,1.5,��
2023/04/19,08:50,0.562,0.818,0.493,1.023,0.720,0.323,0.575,0.543,��,2.5,��
2023/04/19,09:00,0.562,0.818,0.493,1.022,0.721,0.323,0.576,0.544,���쓌,2.6,��
2023/04/19,09:10,0.563,0.819,0.495,1.024,0.722,0.323,0.576,0.542,���쓌,2.9,��
2023/04/19,09:20,0.562,0.818,0.495,1.025,0.721,0.322,0.578,0.544,��,3.0,��
2023/04/19,09:30,0.563,0.819,0.493,1.023,0.720,0.324,0.577,0.544,���k��,3.8,��
2023/04/19,09:40,0.563,0.817,0.494,1.025,0.722,0.323,0.576,0.543,���k��,4.8,��
2023/04/19,09:50,0.562,0.816,0.494,1.023,0.722,0.323,0.576,0.543,�k��,4.3,��
2023/04/19,10:00,0.563,0.818,0.496,1.023,0.722,0.322,0.575,0.544,�k��,4.1,��
2023/04/19,10:10,0.562,0.818,0.494,1.023,0.723,0.323,0.576,0.542,�k��,3.7,��
2023/04/19,10:20,0.561,0.820,0.494,1.023,0.721,0.325,0.575,0.544,�k��,3.9,��
2023/04/19,10:30,0.563,0.818,0.495,1.023,0.723,0.323,0.576,0.543,�k��,4.3,��
2023/04/19,10:40,0.563,0.820,0.496,1.023,0.718,0.324,0.576,0.543,�k��,3.4,��
2023/04/19,10:50,0.564,0.819,0.495,1.024,0.720,0.323,0.576,0.544,���k��,4.2,��
2023/04/19,11:00,0.563,0.819,0.495,1.023,0.723,0.323,0.576,0.545,��,3.5,��
2023/04/19,11:10,0.563,0.820,0.496,1.023,0.725,0.324,0.575,0.545,���k��,2.8,��
2023/04/19,11:20,0.564,0.821,0.495,1.023,0.723,0.325,0.577,0.544,���k��,2.9,��
2023/04/19,11:30,0.564,0.823,0.497,1.027,0.723,0.323,0.576,0.544,��,3.2,��
2023/04/19,11:40,0.564,0.820,0.496,1.024,0.723,0.324,0.577,0.544,���쓌,3.3,��
2023/04/19,11:50,0.564,0.821,0.496,1.025,0.724,0.324,0.575,0.544,���쓌,3.2,��
2023/04/19,12:00,0.564,0.822,0.497,1.019,0.722,0.324,0.576,0.544,��,3.5,��
2023/04/19,12:10,0.563,0.823,0.495,1.020,0.725,0.324,0.578,0.544,��,3.6,��
2023/04/19,12:20,0.563,0.822,0.496,1.024,0.726,0.324,0.576,0.545,��,4.8,��
2023/04/19,12:30,0.565,0.823,0.497,1.024,0.725,0.324,0.578,0.546,���k��,4.7,��
2023/04/19,12:40,0.564,0.824,0.496,1.024,0.726,0.324,0.579,0.545,���k��,4.7,��
2023/04/19,12:50,0.564,0.822,0.496,1.027,0.727,0.324,0.578,0.544,��,4.4,��
2023/04/19,13:00,0.566,0.822,0.497,1.025,0.727,0.325,0.578,0.545,��,4.7,��
2023/04/19,13:10,0.565,0.821,0.497,1.027,0.727,0.323,0.578,0.545,���쓌,4.7,��
2023/04/19,13:20,0.564,0.820,0.496,1.026,0.724,0.325,0.579,0.545,���쓌,4.1,��
2023/04/19,13:30,0.564,0.822,0.498,1.026,0.727,0.323,0.578,0.545,���쓌,3.1,��
2023/04/19,13:40,0.564,0.821,0.497,1.025,0.726,0.325,0.579,0.545,�쓌,4.0,��
2023/04/19,13:50,0.563,0.822,0.498,1.026,0.723,0.323,0.579,0.546,���쓌,3.5,��
2023/04/19,14:00,0.563,0.820,0.496,1.025,0.725,0.323,0.581,0.544,���쓌,4.1,��
2023/04/19,14:10,0.564,0.822,0.496,1.026,0.726,0.324,0.579,0.546,���쓌,4.7,��
2023/04/19,14:20,0.565,0.821,0.496,1.025,0.725,0.324,0.580,0.545,���쓌,5.2,��
2023/04/19,14:30,0.565,0.823,0.497,1.027,0.722,0.326,0.578,0.546,���쓌,6.7,��
2023/04/19,14:40,0.564,0.823,0.498,1.027,0.727,0.324,0.579,0.546,�쓌,8.4,��
2023/04/19,14:50,0.566,0.822,0.498,1.027,0.728,0.323,0.579,0.546,�쓌,6.6,��
2023/04/19,15:00,0.563,0.825,0.498,1.027,0.727,0.323,0.579,0.545,���쓌,6.8,��
2023/04/19,15:10,0.564,0.825,0.497,1.027,0.726,0.324,0.580,0.545,�쓌,5.8,��
2023/04/19,15:20,0.564,0.825,0.497,1.026,0.727,0.325,0.579,0.545,�쓌,6.5,��
2023/04/19,15:30,0.565,0.820,0.496,1.023,0.726,0.324,0.581,0.546,�쓌,7.4,��
2023/04/19,15:40,0.564,0.823,0.497,1.024,0.727,0.325,0.579,0.545,�쓌,8.0,��
2023/04/19,15:50,0.565,0.823,0.497,1.022,0.726,0.324,0.579,0.544,�쓌,7.3,��
2023/04/19,16:00,0.565,0.822,0.496,1.026,0.727,0.324,0.581,0.545,�쓌,6.8,��
2023/04/19,16:10,0.564,0.822,0.497,1.025,0.727,0.325,0.580,0.545,�쓌,6.0,��
2023/04/19,16:20,0.565,0.823,0.498,1.024,0.728,0.325,0.579,0.546,�쓌,6.2,��
2023/04/19,16:30,0.564,0.820,0.497,1.023,0.727,0.325,0.580,0.544,��쓌,5.8,��
2023/04/19,16:40,0.566,0.824,0.496,1.024,0.726,0.326,0.580,0.544,��쓌,4.7,��
2023/04/19,16:50,0.563,0.823,0.496,1.022,0.726,0.325,0.580,0.545,��쓌,4.2,��
2023/04/19,17:00,0.564,0.822,0.498,1.027,0.727,0.327,0.580,0.545,��쓌,4.7,��
2023/04/19,17:10,0.564,0.824,0.496,1.024,0.728,0.327,0.581,0.544,�쓌,4.8,��
2023/04/19,17:20,0.566,0.824,0.497,1.025,0.727,0.325,0.578,0.547,��쓌,6.7,��
2023/04/19,17:30,0.564,0.825,0.497,1.024,0.727,0.325,0.579,0.545,��,4.9,��
2023/04/19,17:40,0.563,0.824,0.497,1.025,0.728,0.324,0.579,0.546,��쓌,5.7,��
2023/04/19,17:50,0.564,0.827,0.497,1.027,0.727,0.326,0.578,0.548,��쓌,5.6,��
2023/04/19,18:00,0.565,0.826,0.495,1.024,0.726,0.326,0.579,0.549,��쓌,5.0,��
2023/04/19,18:10,0.564,0.825,0.498,1.026,0.727,0.325,0.578,0.547,��,6.0,��
2023/04/19,18:20,0.566,0.827,0.498,1.027,0.727,0.326,0.579,0.547,��,4.9,��
2023/04/19,18:30,0.568,0.826,0.496,1.025,0.727,0.326,0.580,0.547,��,5.0,��
2023/04/19,18:40,0.567,0.825,0.498,1.028,0.726,0.327,0.580,0.547,��,5.2,��
2023/04/19,18:50,0.567,0.826,0.499,1.026,0.729,0.325,0.580,0.547,��,5.7,��
2023/04/19,19:00,0.567,0.828,0.498,1.026,0.730,0.326,0.581,0.548,��,6.2,��
2023/04/19,19:10,0.568,0.825,0.500,1.028,0.730,0.327,0.581,0.547,��,6.4,��
2023/04/19,19:20,0.565,0.826,0.499,1.027,0.728,0.326,0.580,0.548,��쐼,5.0,��
2023/04/19,19:30,0.566,0.826,0.498,1.027,0.729,0.326,0.580,0.546,��,4.7,��
2023/04/19,19:40,0.566,0.825,0.499,1.028,0.729,0.326,0.581,0.547,��,3.6,��
2023/04/19,19:50,0.565,0.826,0.499,1.027,0.729,0.326,0.580,0.546,��,2.6,��
2023/04/19,20:00,0.564,0.825,0.499,1.027,0.728,0.325,0.580,0.546,���쐼,2.2,��
2023/04/19,20:10,0.566,0.826,0.498,1.029,0.729,0.325,0.578,0.546,��,2.8,��
2023/04/19,20:20,0.564,0.825,0.499,1.027,0.727,0.325,0.579,0.547,�k��,3.9,��
2023/04/19,20:30,0.564,0.825,0.499,1.027,0.729,0.326,0.579,0.546,�k�k��,5.4,��
2023/04/19,20:40,0.565,0.823,0.498,1.026,0.730,0.326,0.582,0.546,�k�k��,4.2,��
2023/04/19,20:50,0.563,0.825,0.496,1.026,0.728,0.326,0.579,0.546,�k�k��,3.1,��
2023/04/19,21:00,0.565,0.824,0.497,1.028,0.730,0.324,0.579,0.547,�k�k��,4.4,��
2023/04/19,21:10,0.565,0.825,0.498,1.027,0.728,0.324,0.578,0.546,�k�k��,2.6,��
2023/04/19,21:20,0.566,0.824,0.497,1.027,0.728,0.327,0.580,0.547,�k��,3.5,��
2023/04/19,21:30,0.564,0.824,0.497,1.028,0.728,0.326,0.579,0.545,�k��,3.4,��
2023/04/19,21:40,0.565,0.822,0.497,1.027,0.728,0.324,0.579,0.545,�k��,4.2,��
2023/04/19,21:50,0.564,0.823,0.498,1.027,0.727,0.326,0.578,0.546,�k��,3.2,��
2023/04/19,22:00,0.564,0.824,0.497,1.029,0.731,0.326,0.577,0.546,�k��,2.9,��
2023/04/19,22:10,0.563,0.825,0.497,1.028,0.728,0.326,0.579,0.545,�k��,3.3,��
2023/04/19,22:20,0.565,0.824,0.497,1.027,0.729,0.324,0.580,0.546,�k��,3.5,��
2023/04/19,22:30,0.568,0.825,0.498,1.028,0.728,0.325,0.580,0.546,�k�k��,3.0,��
2023/04/19,22:40,0.564,0.824,0.498,1.026,0.727,0.325,0.580,0.545,�k�k��,3.0,��
2023/04/19,22:50,0.563,0.825,0.498,1.028,0.727,0.325,0.578,0.545,�k�k��,2.6,��
2023/04/19,23:00,0.565,0.825,0.496,1.028,0.729,0.325,0.579,0.546,�k�k��,2.6,��
2023/04/19,23:10,0.565,0.824,0.498,1.026,0.728,0.324,0.579,0.546,�k�k��,2.3,��
2023/04/19,23:20,0.563,0.823,0.497,1.027,0.728,0.326,0.579,0.547,�k�k��,2.0,��
2023/04/19,23:30,0.564,0.825,0.498,1.027,0.727,0.326,0.580,0.546,�k,3.0,��
2023/04/19,23:40,0.564,0.826,0.499,1.029,0.728,0.324,0.579,0.546,�k,4.1,��
2023/04/19,23:50,0.564,0.825,0.498,1.031,0.729,0.325,0.578,0.547,�k�k��,3.8,��
